Tracking 35237 objects as of 4-Sep-2026
HD Live streaming from Space Station
objects crossing your sky now

COSMOS 1053

Track COSMOS 1053 now!
10-day predictions
COSMOS 1053 is classified as:


NORAD ID: 11130
Int'l Code: 1978-109C
Launch date: December 5, 1978
Source: Commonwealth of Independent States (former USSR) (CIS)
Launch site: PLESETSK MISSILE AND SPACE COMPLEX (PKMTR)
Your satellite tracking list
Your tracking list is empty




NASA's NSSDC Master Catalog

Two Line Element Set (TLE):
1 11130U 78109C   26247.14248684 -.00000014  00000-0  12295-4 0  9998
2 11130  74.0171 142.6463 0036836 143.4907  10.0943 12.51509199181377
Source of the keplerian elements: AFSPC